When you browse on this site, cookies collect data to enhance your experience and personalize the content and advertising you see.
Visit our Privacy Policy to learn more. By continuing to use the site, you agree to this use of cookies and data.
  • In Latvia
  • List of Countries
  • For 7 days
  • Water Temperature
  • Weather Map
  • Weather Widgets
  • user-avatar
    Login

    Hourly Weather Hobart

    Today, 13 November, Wednesday

    Time Temperature Precipitation Wind Pressure Humidity
    00:00 +4°C° 0.1 mm 4 mps 737 mmHg 83%
    01:00 +4°C° 0.1 mm 4 mps 737 mmHg 84%
    02:00 +4°C° 0 mm 4 mps 737 mmHg 85%
    03:00 +3°C° 0 mm 4 mps 737 mmHg 86%
    04:00 +2°C° 0 mm 5 mps 737 mmHg 87%
    05:00 +3°C° 0 mm 5 mps 737 mmHg 84%
    06:00 +5°C° 0 mm 5 mps 737 mmHg 80%
    07:00 +5°C° 0 mm 6 mps 737 mmHg 77%
    08:00 +7°C° 0.5 mm 6 mps 736 mmHg 80%
    09:00 +8°C° 0.5 mm 7 mps 735 mmHg 83%
    10:00 +8°C° 0.5 mm 7 mps 734 mmHg 86%
    11:00 +9°C° 0.7 mm 7 mps 734 mmHg 84%
    12:00 +9°C° 0.7 mm 8 mps 734 mmHg 83%
    13:00 +9°C° 0.7 mm 8 mps 735 mmHg 81%
    14:00 +9°C° 0.1 mm 8 mps 735 mmHg 77%
    15:00 +7°C° 0.1 mm 8 mps 736 mmHg 73%
    16:00 +7°C° 0.1 mm 8 mps 737 mmHg 68%
    17:00 +8°C° 0 mm 7 mps 737 mmHg 68%
    18:00 +6°C° 0 mm 7 mps 738 mmHg 67%
    19:00 +7°C° 0 mm 6 mps 739 mmHg 67%
    20:00 +7°C° 0 mm 6 mps 739 mmHg 70%
    21:00 +6°C° 0 mm 5 mps 739 mmHg 73%
    22:00 +6°C° 0 mm 5 mps 740 mmHg 76%
    23:00 +5°C° 0 mm 4 mps 740 mmHg 78%

    Tomorrow, 14 November, Thursday

    Time Temperature Precipitation Wind Pressure Humidity
    00:00 +5°C° 0 mm 4 mps 739 mmHg 81%
    01:00 +5°C° 0 mm 3 mps 739 mmHg 84%
    02:00 +7°C° 0 mm 3 mps 739 mmHg 82%
    03:00 +8°C° 0 mm 3 mps 739 mmHg 80%
    04:00 +9°C° 0 mm 3 mps 738 mmHg 78%
    05:00 +10°C° 0.1 mm 3 mps 738 mmHg 79%
    06:00 +10°C° 0.1 mm 4 mps 738 mmHg 80%
    07:00 +11°C° 0.1 mm 4 mps 738 mmHg 82%
    08:00 +12°C° 0 mm 5 mps 738 mmHg 75%
    09:00 +12°C° 0 mm 5 mps 738 mmHg 68%
    10:00 +13°C° 0 mm 6 mps 738 mmHg 60%
    11:00 +14°C° 0 mm 6 mps 737 mmHg 57%
    12:00 +15°C° 0 mm 7 mps 737 mmHg 53%
    13:00 +16°C° 0 mm 8 mps 737 mmHg 49%
    14:00 +16°C° 0 mm 8 mps 737 mmHg 48%
    15:00 +16°C° 0 mm 8 mps 736 mmHg 47%
    16:00 +15°C° 0 mm 9 mps 736 mmHg 46%
    17:00 +13°C° 0 mm 8 mps 736 mmHg 52%
    18:00 +12°C° 0 mm 7 mps 736 mmHg 59%
    19:00 +10°C° 0 mm 6 mps 736 mmHg 65%
    20:00 +10°C° 0 mm 5 mps 736 mmHg 68%
    21:00 +10°C° 0 mm 5 mps 735 mmHg 71%
    22:00 +10°C° 0 mm 4 mps 735 mmHg 74%
    23:00 +9°C° 0.1 mm 5 mps 735 mmHg 74%

    Day after tomorrow, 15 November, Friday

    Time Temperature Precipitation Wind Pressure Humidity
    00:00 +9°C° 0.1 mm 5 mps 735 mmHg 74%
    01:00 +9°C° 0.1 mm 6 mps 735 mmHg 74%
    02:00 +8°C° 0 mm 5 mps 735 mmHg 70%
    03:00 +7°C° 0 mm 5 mps 735 mmHg 66%
    04:00 +6°C° 0 mm 5 mps 736 mmHg 63%
    05:00 +7°C° 0 mm 5 mps 736 mmHg 60%
    06:00 +7°C° 0 mm 5 mps 737 mmHg 58%
    07:00 +8°C° 0 mm 5 mps 737 mmHg 55%
    08:00 +9°C° 0 mm 6 mps 737 mmHg 53%
    09:00 +9°C° 0 mm 6 mps 737 mmHg 50%
    10:00 +10°C° 0 mm 6 mps 737 mmHg 48%
    11:00 +11°C° 0 mm 6 mps 737 mmHg 47%
    12:00 +11°C° 0 mm 6 mps 738 mmHg 45%
    13:00 +13°C° 0 mm 6 mps 738 mmHg 44%
    14:00 +11°C° 0.3 mm 6 mps 738 mmHg 48%
    15:00 +10°C° 0.3 mm 6 mps 738 mmHg 53%
    16:00 +9°C° 0.3 mm 7 mps 738 mmHg 58%
    17:00 +9°C° 0 mm 6 mps 738 mmHg 60%
    18:00 +8°C° 0 mm 5 mps 739 mmHg 62%
    19:00 +7°C° 0 mm 5 mps 739 mmHg 64%
    20:00 +5°C° 0 mm 5 mps 739 mmHg 78%
    21:00 +5°C° 0 mm 5 mps 739 mmHg 79%
    22:00 +3°C° 0 mm 5 mps 740 mmHg 81%
    23:00 +5°C° 0.1 mm 5 mps 740 mmHg 81%

    16 November, Saturday

    Time Temperature Precipitation Wind Pressure Humidity
    00:00 +5°C° 0.1 mm 5 mps 740 mmHg 80%
    01:00 +5°C° 0.1 mm 5 mps 740 mmHg 80%
    02:00 +5°C° 0.2 mm 5 mps 740 mmHg 83%
    03:00 +3°C° 0.2 mm 5 mps 740 mmHg 87%
    04:00 +3°C° 0.2 mm 5 mps 740 mmHg 91%
    05:00 +5°C° 0 mm 5 mps 740 mmHg 86%
    06:00 +4°C° 0 mm 6 mps 741 mmHg 81%
    07:00 +5°C° 0 mm 6 mps 741 mmHg 76%
    08:00 +6°C° 0.1 mm 7 mps 742 mmHg 67%
    09:00 +9°C° 0.1 mm 7 mps 742 mmHg 57%
    10:00 +10°C° 0.1 mm 7 mps 742 mmHg 48%
    11:00 +11°C° 0 mm 7 mps 742 mmHg 46%
    12:00 +11°C° 0 mm 7 mps 743 mmHg 44%
    13:00 +11°C° 0 mm 7 mps 743 mmHg 42%
    14:00 +11°C° 0 mm 7 mps 743 mmHg 43%
    15:00 +11°C° 0 mm 7 mps 743 mmHg 44%
    16:00 +10°C° 0 mm 6 mps 744 mmHg 45%
    17:00 +9°C° 0 mm 6 mps 744 mmHg 52%
    18:00 +8°C° 0 mm 5 mps 745 mmHg 58%
    19:00 +7°C° 0 mm 4 mps 745 mmHg 64%
    20:00 +6°C° 0 mm 4 mps 746 mmHg 71%
    21:00 +5°C° 0 mm 3 mps 746 mmHg 78%
    22:00 +4°C° 0 mm 3 mps 747 mmHg 85%
    23:00 +3°C° 0 mm 3 mps 747 mmHg 87%

    17 November, Sunday

    Time Temperature Precipitation Wind Pressure Humidity
    00:00 +3°C° 0 mm 3 mps 747 mmHg 90%
    01:00 +2°C° 0 mm 3 mps 747 mmHg 92%
    02:00 +2°C° 0 mm 3 mps 747 mmHg 91%
    03:00 +2°C° 0 mm 3 mps 747 mmHg 91%
    04:00 +3°C° 0 mm 3 mps 747 mmHg 90%
    05:00 +4°C° 0 mm 3 mps 748 mmHg 83%
    06:00 +5°C° 0 mm 3 mps 748 mmHg 76%
    07:00 +8°C° 0 mm 3 mps 749 mmHg 68%
    08:00 +9°C° 0 mm 3 mps 749 mmHg 62%
    09:00 +10°C° 0 mm 3 mps 749 mmHg 56%
    10:00 +11°C° 0 mm 3 mps 749 mmHg 50%
    11:00 +13°C° 0 mm 3 mps 749 mmHg 46%
    12:00 +14°C° 0 mm 3 mps 749 mmHg 42%
    13:00 +16°C° 0 mm 3 mps 749 mmHg 39%
    14:00 +16°C° 0 mm 3 mps 748 mmHg 39%
    15:00 +16°C° 0 mm 3 mps 748 mmHg 39%
    16:00 +16°C° 0 mm 2 mps 748 mmHg 39%
    17:00 +14°C° 0 mm 2 mps 748 mmHg 49%
    18:00 +12°C° 0 mm 2 mps 749 mmHg 58%
    19:00 +9°C° 0 mm 2 mps 749 mmHg 67%
    20:00 +8°C° 0 mm 2 mps 749 mmHg 72%
    21:00 +7°C° 0 mm 2 mps 749 mmHg 76%
    22:00 +6°C° 0 mm 2 mps 749 mmHg 81%
    23:00 +5°C° 0 mm 2 mps 748 mmHg 81%

    18 November, Monday

    Time Temperature Precipitation Wind Pressure Humidity
    00:00 +5°C° 0 mm 2 mps 748 mmHg 82%
    01:00 +5°C° 0 mm 2 mps 747 mmHg 82%
    02:00 +5°C° 0 mm 2 mps 747 mmHg 80%
    03:00 +5°C° 0 mm 2 mps 746 mmHg 78%
    04:00 +5°C° 0 mm 3 mps 746 mmHg 76%
    05:00 +7°C° 0 mm 3 mps 746 mmHg 70%
    06:00 +9°C° 0 mm 3 mps 746 mmHg 65%
    07:00 +10°C° 0 mm 4 mps 745 mmHg 60%
    08:00 +12°C° 0 mm 4 mps 745 mmHg 56%
    09:00 +14°C° 0 mm 4 mps 744 mmHg 52%
    10:00 +17°C° 0 mm 4 mps 744 mmHg 48%
    11:00 +17°C° 0 mm 5 mps 743 mmHg 45%
    12:00 +19°C° 0 mm 5 mps 742 mmHg 43%
    13:00 +20°C° 0 mm 5 mps 742 mmHg 41%
    14:00 +20°C° 0 mm 5 mps 741 mmHg 42%
    15:00 +20°C° 0 mm 6 mps 741 mmHg 42%
    16:00 +19°C° 0 mm 6 mps 740 mmHg 43%
    17:00 +17°C° 0 mm 5 mps 740 mmHg 46%
    18:00 +15°C° 0 mm 5 mps 740 mmHg 50%
    19:00 +14°C° 0 mm 4 mps 740 mmHg 54%
    20:00 +13°C° 0 mm 4 mps 740 mmHg 59%
    21:00 +11°C° 0 mm 3 mps 739 mmHg 65%
    22:00 +10°C° 0 mm 3 mps 739 mmHg 70%
    23:00 +11°C° 0 mm 3 mps 739 mmHg 71%
    Show more